Flag for U.S.A. Weather past 2 weeks in Tallahassee, Florida, U.S.A.

Now
83 °F

Broken clouds.


Feels Like: 85 °F
Forecast: 67 / 86 °F
Wind: 5 mph from Northeast

Location: Tallahassee Regional Airport

Current Time: Oct 1, 2014 at 2:27:42 PM

Latest Report: Oct 1, 2014 at 1:53 PM


Visibility: 10 mi

Pressure: 29.96 "Hg

Humidity: 59%

Dew point: 67 °F

Location of TallahasseeLocation

Historic Weather in Tallahassee — Graph

°F

Tallahassee temperature yesterday

Maximum temperature yesterday: 79 °F (at 2:53 PM)
Minimum temperature yesterday: 73 °F (at 5:53 AM)
Average temperature yesterday: 75 °F

Past Weeks' High & Low Weather Summary

 TemperatureHumidityPressure
High92 °F (Sep 17, 3:53 PM)100% (Sep 21, 5:53 AM)30.19 "Hg (Sep 21, 5:53 AM)
Low61 °F (Sep 22, 6:53 AM)33% (Sep 22, 2:53 PM)29.83 "Hg (Sep 29, 3:53 PM)
Average75 °F78%29.99 "Hg
* Reported Sep 16 12:53 PM — Oct 1 12:53 PM, Tallahassee, Weather by CustomWeather, © 2014

Note: Actual official high and low records may vary slightly from our data, if they occured in-between our weather recording intervals... More about our weather records

Advertising

Tallahassee weather history for previous 24 hours

 ConditionsComfort  
Time TempWeatherWind HumidityBarometerVisibility
12:53 PM
Oct 1
82 °FPartly sunny.5 mph63%29.98 "Hg10 mi
11:53 AM79 °FOvercast.No wind72%29.98 "Hg10 mi
10:53 AM75 °FOvercast.No wind85%29.98 "Hg10 mi
9:53 AM73 °FOvercast.5 mph88%29.98 "Hg10 mi
8:53 AM72 °FOvercast.No wind91%29.95 "Hg10 mi
7:53 AM70 °FPassing clouds.3 mph93%29.93 "Hg10 mi
6:53 AM70 °FOvercast.3 mph93%29.93 "Hg10 mi
5:53 AM70 °FPassing clouds.No wind93%29.90 "Hg10 mi
4:53 AM69 °FOvercast.No wind96%29.89 "Hg10 mi
3:53 AM68 °FPassing clouds.No wind93%29.89 "Hg10 mi
2:53 AM69 °FClear.No wind96%29.89 "Hg10 mi
1:53 AM72 °FClear.No wind91%29.89 "Hg10 mi
12:53 AM73 °FClear.No wind88%29.89 "Hg10 mi
11:53 PM
Sep 30
74 °FOvercast.3 mph85%29.89 "Hg10 mi
10:53 PM75 °FOvercast.3 mph82%29.90 "Hg10 mi
9:53 PM76 °FOvercast.No wind82%29.89 "Hg10 mi
8:53 PM76 °FOvercast.No wind82%29.89 "Hg10 mi
7:53 PM77 °FOvercast.3 mph79%29.87 "Hg10 mi
6:53 PM78 °FPartly sunny.3 mph76%29.86 "Hg10 mi
5:53 PM78 °FOvercast.5 mph74%29.85 "Hg10 mi
4:53 PM79 °FOvercast.6 mph72%29.84 "Hg10 mi
3:53 PM79 °FOvercast.6 mph72%29.84 "Hg10 mi
2:53 PM79 °FMostly cloudy.3 mph72%29.85 "Hg10 mi
Weather by CustomWeather, © 2014

See weather overviewHow to use our weather pages